Погода в Хако

Коста-Рика     9°36′51″N   84°37′40″W
темп.,
°C
ветер,
м/с
пор.,
м/с
влажн.,
%
обл.,
%
осадки,
мм/ч
давл.,
гПа
погр.,
м
23 апреля, пт
пт2300:00+28зсз01675 2.4 1010435
03:00+28с3370100 0.0 1009482
06:00+27ссв336779 0.1 1011358
09:00+27ссв226591 0.0 1012315
12:00+28ююв336663 0.0 1011335
15:00+29ю446961 0.1 1009552
18:00+29ю33695 0.3 1010717
21:00+28ю22715 3.3 101282
24 апреля, сб
сб2400:00+28ююз227028 6.4 1011251
03:00+28ссз01698 1.7 1010256
06:00+28ссв11685 1.7 1011406
09:00+28ссв11685 0.0 1012392
12:00+28ююз22685 0.0 1011489
15:00+29ююз33685 0.0 1009698
18:00+28ююз33705 0.0 1010733
21:00+28юз117092 0.0 1011653
25 апреля, вс
вс2500:00+28юз11723 0.1 1010577
03:00+28зсз12745 0.0 1009549
06:00+28сз227677 0.1 1011547
09:00+27ссз33775 0.2 1012430
12:00+28юз22725 0.3 1011279
15:00+29юз44723 0.0 1008640
18:00+28юз337511 0.3 1009663
21:00+28юз227848 2.5 1010121
26 апреля, пн
пн2600:00+28з117510 3.9 1010238
03:00+27ссз22785 0.9 1008207
06:00+27ссв44715 2.1 1010362
09:00+27ссв336443 0.1 1012323
12:00+28ююв22615 0.1 1010202
15:00+29ю436855 0.0 1008445
18:00+29ю22715 0.0 1009514
21:00+28ююз227529 1.4 1010164
27 апреля, вт
вт2700:00+28с227450 2.6 1010288
03:00+28с437091 0.4 1009423
06:00+27ссв337140 0.5 1010392
09:00+28с336773 0.1 1011372
12:00+28ююв226315 0.1 1009180
15:00+28ююв447196 0.3 1007353
18:00+29ю447218 1.9 1009503
21:00+28ююв3373100 3.5 1010164